EW8016 Weather Reports


Display with metric or nautical units.
time (UTC)temp
F
wind
direction
speed
MPH
gust
MPH
rain 1hr
in
rain 24hr
in
rain mn
in
humidity
%
barometer
mb
20260904122003 65 276 4.0 10.0 0.02 0.12 0.12 95 1009.9
20260904121503 65 262 5.0 10.0 0.03 0.12 0.12 95 1009.8
20260904121003 65 261 4.0 10.0 0.03 0.11 0.11 94 1009.8
20260904120503 65 276 4.0 9.0 0.03 0.11 0.11 94 1009.8
20260904120218 65 274 4.0 12.0 0.03 0.11 0.11 94 1009.9
20260904115503 65 270 5.0 12.0 0.03 0.11 0.11 94 1009.8
20260904115003 65 277 5.0 11.0 0.09 0.11 0.11 94 1009.8
20260904114503 65 286 5.0 13.0 0.09 0.11 0.11 94 1009.7
20260904114003 65 287 6.0 13.0 0.09 0.11 0.11 94 1009.5
20260904113503 66 295 5.0 13.0 0.09 0.11 0.11 95 1009.6
20260904113003 65 293 5.0 10.0 0.09 0.11 0.11 94 1009.7
20260904112503 65 276 6.0 11.0 0.09 0.10 0.10 94 1009.7
20260904112003 65 266 6.0 12.0 0.08 0.09 0.09 93 1010.0
20260904111503 65 267 6.0 13.0 0.07 0.09 0.09 92 1009.9
20260904111003 65 260 6.0 13.0 0.06 0.08 0.08 92 1009.7
20260904110716 65 260 6.0 16.0 0.06 0.08 0.08 91 1009.5
20260904110218 66 269 7.0 16.0 0.06 0.08 0.08 90 1009.6
20260904105503 68 273 7.0 19.0 0.06 0.08 0.08 87 1010.0
20260904105217 70 254 8.0 19.0 0.05 0.06 0.06 89 1010.1
20260904104503 71 212 7.0 17.0 0.00 0.02 0.02 90 1008.8
20260904104217 71 213 7.0 17.0 0.00 0.02 0.02 90 1008.9
20260904103503 71 227 8.0 20.0 0.00 0.02 0.02 89 1008.9
20260904103003 71 232 9.0 17.0 0.00 0.02 0.02 89 1008.9
20260904102504 71 226 8.0 17.0 0.00 0.02 0.02 90 1009.0
20260904102217 71 226 8.0 15.0 0.00 0.02 0.02 90 1008.9
20260904101503 70 214 9.0 23.0 0.00 0.02 0.02 92 1009.1
20260904101217 70 210 9.0 23.0 0.00 0.02 0.02 92 1008.9
20260904100718 70 217 7.0 23.0 0.00 0.02 0.02 94 1009.0
20260904100003 70 212 6.0 15.0 0.00 0.02 0.02 95 1009.1
20260904095505 69 202 5.0 13.0 0.00 0.02 0.02 95 1009.1
20260904095003 69 203 6.0 15.0 0.00 0.02 0.02 94 1009.2
20260904094503 69 199 6.0 15.0 0.01 0.02 0.02 94 1009.2
20260904094003 68 207 6.0 18.0 0.01 0.02 0.02 94 1009.4
20260904093503 68 225 6.0 18.0 0.02 0.02 0.02 94 1009.5
20260904093217 68 223 6.0 16.0 0.02 0.02 0.02 94 1009.6
20260904092503 68 226 5.0 16.0 0.02 0.02 0.02 94 1009.8
20260904092217 68 230 6.0 16.0 0.02 0.02 0.02 94 1009.7
20260904091503 68 223 7.0 17.0 0.02 0.02 0.02 93 1009.4
20260904091003 68 217 7.0 17.0 0.02 0.02 0.02 92 1009.4
20260904090718 69 216 6.0 17.0 0.02 0.02 0.02 92 1009.6
20260904090003 69 221 6.0 18.0 0.02 0.02 0.02 91 1009.5
20260904085503 69 223 6.0 18.0 0.02 0.02 0.02 91 1009.5
20260904085003 69 225 5.0 15.0 0.02 0.02 0.02 91 1009.5
20260904084503 69 222 6.0 15.0 0.01 0.01 0.01 90 1009.4
20260904084003 69 213 6.0 15.0 0.01 0.01 0.01 89 1009.5
20260904083503 70 216 6.0 12.0 0.00 0.00 0.00 88 1009.3
20260904083216 70 222 6.0 13.0 0.00 0.00 0.00 88 1009.5
20260904082503 70 231 7.0 17.0 0.00 0.00 0.00 87 1009.5
20260904082003 70 223 5.0 17.0 0.00 0.00 0.00 86 1009.5
20260904081503 70 209 5.0 13.0 0.00 0.00 0.00 86 1009.5
20260904081003 70 218 6.0 14.0 0.00 0.00 0.00 85 1009.5
20260904080503 70 216 7.0 15.0 0.00 0.00 0.00 84 1009.7
20260904080003 71 206 7.0 15.0 0.00 0.00 0.00 84 1009.6
20260904075503 71 196 7.0 16.0 0.00 0.00 0.00 84 1009.6
20260904075218 71 197 7.0 16.0 0.00 0.00 0.00 83 1009.5
20260904074503 71 205 6.0 14.0 0.00 0.00 0.00 83 1009.5
20260904074003 71 214 5.0 13.0 0.00 0.00 0.00 83 1009.7
20260904073503 71 221 5.0 16.0 0.00 0.00 0.00 84 1009.8
20260904073218 71 227 6.0 16.0 0.00 0.00 0.00 84 1009.8
20260904072503 70 209 6.0 14.0 0.00 0.00 0.00 84 1010.0
20260904072003 70 195 6.0 18.0 0.00 0.00 0.00 84 1010.0
20260904071503 70 199 6.0 18.0 0.00 0.00 0.00 84 1009.9
20260904071003 70 198 6.0 18.0 0.00 0.00 0.00 84 1010.1
20260904070503 70 197 6.0 17.0 0.00 0.00 0.00 84 1010.0
20260904070003 70 195 6.0 15.0 0.00 0.00 0.00 84 1010.1
20260904065503 70 202 5.0 11.0 0.00 0.00 0.00 84 1010.1
20260904065218 70 193 4.0 12.0 0.00 0.00 0.00 84 1010.2
20260904064503 70 208 6.0 15.0 0.00 0.00 0.00 84 1010.2
20260904064003 70 217 6.0 13.0 0.00 0.00 0.00 84 1010.5
20260904063503 70 225 5.0 13.0 0.00 0.00 0.00 85 1010.4
20260904063218 70 230 4.0 12.0 0.00 0.00 0.00 85 1010.4
20260904062503 70 240 5.0 13.0 0.00 0.00 0.00 84 1010.5
20260904062003 70 230 6.0 13.0 0.00 0.00 0.00 84 1010.6
20260904061717 70 230 6.0 13.0 0.00 0.00 0.00 84 1010.7
20260904061003 70 235 7.0 14.0 0.00 0.00 0.00 84 1010.7
20260904060503 70 234 8.0 20.0 0.00 0.00 0.00 84 1010.7
20260904060003 69 236 8.0 20.0 0.00 0.00 0.00 85 1010.7
20260904055503 69 234 8.0 20.0 0.00 0.00 0.00 85 1010.6
20260904055217 69 231 7.0 19.0 0.00 0.00 0.00 85 1010.7
20260904054503 69 224 5.0 16.0 0.00 0.00 0.00 85 1010.9
20260904054003 69 220 5.0 16.0 0.00 0.00 0.00 86 1010.9
20260904053503 69 214 5.0 12.0 0.00 0.00 0.00 86 1011.0
20260904053003 69 216 6.0 14.0 0.00 0.00 0.00 86 1011.1
20260904052503 69 216 6.0 16.0 0.00 0.00 0.00 86 1011.2
20260904052217 69 213 6.0 16.0 0.00 0.00 0.00 86 1011.2
20260904051503 69 214 6.0 14.0 0.00 0.00 0.00 87 1011.4
20260904051003 69 216 6.0 14.0 0.00 0.00 0.00 87 1011.5
20260904050503 68 224 6.0 14.0 0.00 0.00 0.00 88 1011.5
20260904050003 68 224 5.0 13.0 0.00 0.00 0.00 88 1011.6
20260904045503 68 222 5.0 13.0 0.00 0.00 0.00 89 1011.6
20260904045217 68 215 5.0 11.0 0.00 0.00 0.00 89 1011.5
20260904044503 68 204 5.0 16.0 0.00 0.00 0.00 90 1011.6
20260904044003 68 215 5.0 16.0 0.00 0.00 0.00 90 1011.7
20260904043503 68 220 5.0 13.0 0.00 0.00 0.00 90 1011.7
20260904043003 68 214 5.0 14.0 0.00 0.00 0.00 91 1011.7
20260904042503 68 215 5.0 14.0 0.00 0.00 0.00 91 1011.7
20260904042217 68 217 5.0 12.0 0.00 0.00 0.00 91 1011.7
20260904041503 68 209 4.0 9.0 0.00 0.00 0.00 91 1011.8
20260904041217 68 197 4.0 9.0 0.00 0.00 0.00 91 1011.8
20260904040503 68 197 5.0 13.0 0.00 0.00 0.00 92 1011.9
20260904040003 68 196 5.0 13.0 0.00 0.00 0.00 92 1012.0
20260904035718 68 196 5.0 11.0 0.00 0.00 0.00 92 1012.0
20260904035003 68 217 4.0 11.0 0.00 0.00 0.00 91 1012.0
20260904034503 68 218 3.0 10.0 0.00 0.00 0.00 92 1012.2
20260904034003 68 219 3.0 10.0 0.00 0.00 0.00 92 1012.2
20260904033718 68 215 3.0 9.0 0.00 0.00 0.00 92 1012.2
20260904033003 68 219 4.0 10.0 0.00 0.00 0.00 92 1012.3
20260904032503 68 227 4.0 10.0 0.00 0.00 0.00 92 1012.2
20260904032216 68 224 4.0 11.0 0.00 0.00 0.00 92 1012.2
20260904031503 68 210 4.0 11.0 0.00 0.00 0.00 92 1012.4
20260904031003 68 216 4.0 11.0 0.00 0.00 0.00 92 1012.4
20260904030503 68 210 4.0 11.0 0.00 0.00 0.00 92 1012.5
20260904030003 68 215 4.0 12.0 0.00 0.00 0.00 92 1012.6
20260904025503 68 221 4.0 12.0 0.00 0.00 0.00 92 1012.7
20260904025003 68 206 4.0 10.0 0.00 0.00 0.00 92 1012.7
20260904024503 68 199 3.0 9.0 0.00 0.00 0.00 92 1012.7
20260904024003 68 202 2.0 8.0 0.00 0.00 0.00 92 1012.7
20260904023503 68 204 3.0 9.0 0.00 0.00 0.00 92 1013.0
20260904023003 68 204 3.0 9.0 0.00 0.00 0.00 92 1012.9
20260904022503 68 206 2.0 8.0 0.00 0.00 0.00 92 1013.0
20260904022003 68 213 3.0 13.0 0.00 0.00 0.00 92 1013.0
20260904021503 68 212 4.0 13.0 0.00 0.00 0.00 92 1013.1
20260904021003 67 211 4.0 10.0 0.00 0.00 0.00 92 1013.1
20260904020503 67 207 4.0 10.0 0.00 0.00 0.00 92 1013.1
20260904020003 67 208 4.0 10.0 0.00 0.00 0.00 92 1013.2
20260904015717 67 206 3.0 10.0 0.00 0.00 0.00 93 1013.4
20260904015003 67 202 4.0 10.0 0.00 0.00 0.00 93 1013.4
20260904014503 67 195 4.0 10.0 0.00 0.00 0.00 93 1013.4
20260904014003 67 193 4.0 10.0 0.00 0.00 0.00 93 1013.6
20260904013503 67 190 3.0 8.0 0.00 0.00 0.00 93 1013.6
20260904013003 67 188 3.0 8.0 0.00 0.00 0.00 93 1013.7
20260904012503 67 174 3.0 8.0 0.00 0.00 0.00 93 1013.6
20260904012003 67 172 3.0 8.0 0.00 0.00 0.00 93 1013.7
20260904011503 67 186 3.0 7.0 0.00 0.00 0.00 93 1013.7
20260904011218 67 191 3.0 7.0 0.00 0.00 0.00 93 1013.8
20260904010717 67 177 2.0 6.0 0.00 0.00 0.00 93 1013.9
20260904010003 67 189 3.0 7.0 0.00 0.00 0.00 92 1014.0
20260904005503 67 174 3.0 12.0 0.00 0.00 0.00 93 1014.0
20260904005003 67 173 3.0 12.0 0.00 0.00 0.00 93 1014.0
20260904004503 67 181 2.0 9.0 0.00 0.00 0.00 93 1014.1
20260904004217 67 181 3.0 9.0 0.00 0.00 0.00 93 1014.1
20260904003503 67 174 3.0 8.0 0.00 0.00 0.00 93 1014.1
20260904003217 67 175 3.0 5.0 0.00 0.00 0.00 93 1014.1
20260904002503 67 179 3.0 9.0 0.00 0.00 0.00 93 1014.2
20260904002003 66 175 3.0 9.0 0.00 0.00 0.00 93 1014.2
20260904001503 66 176 3.0 7.0 0.00 0.00 0.00 93 1014.2
20260904001003 66 179 3.0 8.0 0.00 0.00 0.00 93 1014.3
20260904000503 66 175 3.0 8.0 0.00 0.00 0.00 93 1014.5
20260904000003 66 180 3.0 6.0 0.00 0.00 0.00 93 1014.6
20260903235503 66 182 3.0 9.0 0.00 0.00 0.00 93 1014.6
20260903235003 66 170 3.0 9.0 0.00 0.00 0.00 92 1014.6
20260903234503 66 174 3.0 7.0 0.00 0.00 0.00 92 1014.7
20260903234217 65 176 2.0 7.0 0.00 0.00 0.00 92 1014.8
20260903233503 65 201 2.0 8.0 0.00 0.00 0.00 92 1015.0
20260903233003 65 196 2.0 8.0 0.00 0.00 0.00 92 1015.1
20260903232503 65 192 2.0 5.0 0.00 0.00 0.00 92 1015.2
20260903232217 65 191 3.0 7.0 0.00 0.00 0.00 92 1015.2
20260903231718 65 184 2.0 7.0 0.00 0.00 0.00 92 1015.1
20260903231003 65 166 2.0 6.0 0.00 0.00 0.00 91 1015.2
20260903230503 65 164 3.0 6.0 0.00 0.00 0.00 91 1015.2
20260903230003 65 173 2.0 5.0 0.00 0.00 0.00 91 1015.2
20260903225503 65 174 2.0 5.0 0.00 0.00 0.00 91 1015.3
20260903225003 65 171 3.0 6.0 0.00 0.00 0.00 91 1015.4
20260903224503 65 172 3.0 7.0 0.00 0.00 0.00 91 1015.3
20260903224003 65 168 2.0 7.0 0.00 0.00 0.00 91 1015.4
20260903223503 65 156 2.0 6.0 0.00 0.00 0.00 90 1015.5
20260903223003 65 149 2.0 6.0 0.00 0.00 0.00 90 1015.5
20260903222503 65 148 2.0 5.0 0.00 0.00 0.00 90 1015.5
20260903222003 66 160 2.0 5.0 0.00 0.00 0.00 90 1015.6
20260903221718 66 163 1.0 5.0 0.00 0.00 0.00 90 1015.6
20260903221003 66 0 0.0 0.0 0.00 0.00 0.00 90 1015.7
20260903220503 66 0 0.0 0.0 0.00 0.00 0.00 89 1015.9
20260903220005 66 0 0.0 0.0 0.00 0.00 0.00 89 1015.9
20260903215503 66 169 0.0 2.0 0.00 0.00 0.00 89 1016.0
20260903215003 66 169 1.0 2.0 0.00 0.00 0.00 90 1016.0
20260903214503 66 169 1.0 2.0 0.00 0.00 0.00 89 1015.9
20260903214003 66 169 0.0 2.0 0.00 0.00 0.00 89 1015.9
20260903213503 66 169 1.0 4.0 0.00 0.00 0.00 89 1016.1
20260903213003 66 169 1.0 4.0 0.00 0.00 0.00 89 1016.1
20260903212503 66 166 1.0 4.0 0.00 0.00 0.00 89 1016.0
20260903212003 66 173 1.0 4.0 0.00 0.00 0.00 89 1016.1
20260903211503 66 212 1.0 4.0 0.00 0.00 0.00 88 1016.2
20260903211003 66 231 1.0 4.0 0.00 0.00 0.00 88 1016.2
20260903210717 66 218 1.0 3.0 0.00 0.00 0.00 88 1016.3
20260903210003 66 214 1.0 4.0 0.00 0.01 0.00 88 1016.4
20260903205503 66 208 1.0 4.0 0.00 0.01 0.00 87 1016.4
20260903205003 66 202 1.0 4.0 0.00 0.01 0.00 87 1016.4
20260903204503 66 217 1.0 3.0 0.00 0.01 0.00 87 1016.4
20260903204003 67 205 1.0 3.0 0.00 0.01 0.00 87 1016.3
20260903203503 67 179 2.0 5.0 0.00 0.01 0.00 86 1016.3
20260903203003 67 183 1.0 5.0 0.00 0.01 0.00 86 1016.3
20260903202503 67 200 1.0 4.0 0.00 0.01 0.00 86 1016.6
20260903202003 67 224 1.0 4.0 0.00 0.01 0.00 86 1016.5
20260903201503 67 239 1.0 4.0 0.00 0.01 0.00 85 1016.5
20260903201003 67 243 1.0 6.0 0.00 0.01 0.00 85 1016.6
20260903200717 67 238 2.0 6.0 0.00 0.01 0.00 85 1016.6
20260903200218 67 219 2.0 6.0 0.00 0.01 0.00 84 1016.5
20260903195503 67 213 2.0 7.0 0.00 0.01 0.00 84 1016.6
20260903195003 67 215 1.0 7.0 0.00 0.01 0.00 84 1016.9
20260903194503 67 230 1.0 4.0 0.00 0.01 0.00 83 1016.7
20260903194003 67 230 1.0 4.0 0.00 0.01 0.00 83 1016.6
20260903193503 67 228 0.0 3.0 0.00 0.01 0.00 82 1016.6
20260903193003 67 228 1.0 3.0 0.00 0.01 0.00 82 1016.6
20260903192716 67 228 1.0 3.0 0.00 0.01 0.00 82 1016.7
20260903192003 68 226 1.0 3.0 0.00 0.01 0.00 81 1016.6
20260903191503 68 230 1.0 4.0 0.00 0.01 0.00 81 1016.8
20260903191004 68 225 2.0 4.0 0.00 0.01 0.00 80 1016.7
20260903190503 68 232 2.0 5.0 0.00 0.01 0.00 80 1016.5
20260903190003 68 240 2.0 5.0 0.00 0.01 0.00 79 1016.6
20260903185716 68 230 2.0 4.0 0.00 0.01 0.00 79 1016.8
20260903185003 69 229 2.0 6.0 0.00 0.01 0.00 79 1016.6
20260903184503 69 236 2.0 6.0 0.00 0.01 0.00 78 1016.6
20260903184003 69 230 2.0 5.0 0.00 0.01 0.00 77 1016.7
20260903183503 70 241 2.0 5.0 0.00 0.01 0.00 76 1016.6
20260903183003 70 239 2.0 5.0 0.00 0.01 0.00 76 1016.5
20260903182503 70 236 3.0 5.0 0.00 0.01 0.00 75 1016.5
20260903182003 70 242 3.0 8.0 0.00 0.01 0.00 75 1016.4
20260903181503 70 246 3.0 8.0 0.00 0.01 0.00 74 1016.6
20260903181003 70 249 3.0 8.0 0.00 0.01 0.00 74 1016.8
20260903180504 71 247 4.0 8.0 0.00 0.01 0.00 74 1016.6
20260903180003 71 248 4.0 8.0 0.00 0.01 0.00 73 1016.8
20260903175503 71 249 4.0 8.0 0.00 0.01 0.00 73 1016.9
20260903175003 71 241 4.0 8.0 0.00 0.01 0.00 72 1016.6
20260903174503 71 249 4.0 10.0 0.00 0.01 0.00 72 1016.6
20260903174003 72 256 6.0 11.0 0.00 0.01 0.00 71 1016.8
20260903173718 72 255 6.0 16.0 0.00 0.01 0.00 71 1016.8
20260903173003 72 243 5.0 16.0 0.00 0.01 0.00 70 1016.5
20260903172503 73 239 5.0 13.0 0.00 0.01 0.00 71 1016.5
20260903172003 73 244 4.0 13.0 0.00 0.01 0.00 70 1016.2
20260903171503 73 258 4.0 11.0 0.00 0.01 0.00 71 1016.2
20260903171004 73 271 5.0 12.0 0.00 0.01 0.00 70 1016.1
20260903170503 74 271 5.0 12.0 0.00 0.01 0.00 70 1016.1
20260903170003 74 264 5.0 11.0 0.00 0.01 0.00 70 1016.1
20260903165503 74 261 4.0 11.0 0.00 0.01 0.00 71 1016.1
20260903165003 73 268 5.0 11.0 0.00 0.01 0.00 71 1016.3
20260903164503 73 273 4.0 9.0 0.00 0.01 0.00 71 1016.4
20260903164003 73 279 4.0 9.0 0.00 0.01 0.00 71 1016.3
20260903163503 73 279 4.0 9.0 0.00 0.01 0.00 71 1016.4
20260903163003 73 276 6.0 12.0 0.00 0.01 0.00 70 1016.5
20260903162503 73 274 6.0 12.0 0.00 0.01 0.00 70 1016.5
20260903162003 74 274 6.0 15.0 0.00 0.01 0.00 68 1016.4
20260903161503 74 272 6.0 15.0 0.00 0.01 0.00 68 1016.3
20260903161003 75 266 7.0 16.0 0.00 0.01 0.00 66 1016.3
20260903160503 75 271 6.0 16.0 0.00 0.01 0.00 66 1016.2
20260903160003 75 277 5.0 11.0 0.00 0.01 0.00 67 1016.2
20260903155503 74 274 4.0 9.0 0.00 0.01 0.00 68 1016.3
20260903155003 74 263 5.0 15.0 0.00 0.01 0.00 67 1016.4
20260903154503 75 255 7.0 15.0 0.00 0.01 0.00 67 1016.3
20260903154003 75 267 6.0 13.0 0.00 0.01 0.00 68 1016.1
20260903153503 75 283 6.0 13.0 0.00 0.01 0.00 68 1016.3
20260903153004 76 281 6.0 12.0 0.00 0.01 0.00 67 1016.2
20260903152504 76 277 7.0 14.0 0.00 0.01 0.00 67 1016.2
20260903152003 76 275 8.0 16.0 0.00 0.01 0.00 67 1016.2
20260903151503 75 274 9.0 16.0 0.00 0.01 0.00 65 1016.1
20260903151003 76 277 8.0 16.0 0.00 0.01 0.00 64 1016.1
20260903150503 76 280 9.0 17.0 0.00 0.01 0.00 64 1016.0
20260903150003 76 278 9.0 17.0 0.00 0.01 0.00 63 1016.0
20260903145503 77 274 8.0 24.0 0.00 0.01 0.00 63 1016.0
20260903145003 77 267 8.0 24.0 0.00 0.01 0.00 63 1016.1
20260903144503 76 269 9.0 16.0 0.00 0.01 0.00 65 1016.1
20260903144003 76 275 9.0 16.0 0.00 0.01 0.00 65 1016.0
20260903143719 76 280 10.0 16.0 0.00 0.01 0.00 65 1016.0
20260903143003 76 280 9.0 17.0 0.00 0.01 0.00 68 1016.0
20260903142503 75 285 8.0 17.0 0.00 0.01 0.00 69 1016.1
20260903142003 75 281 7.0 14.0 0.00 0.01 0.00 69 1016.2
20260903141503 75 266 6.0 12.0 0.00 0.01 0.00 70 1016.1
20260903141003 74 260 6.0 13.0 0.00 0.01 0.00 69 1016.1
20260903140503 74 257 6.0 16.0 0.00 0.01 0.00 69 1016.1
20260903140003 74 264 7.0 16.0 0.00 0.01 0.00 69 1015.9
20260903135503 74 272 8.0 18.0 0.00 0.01 0.00 68 1015.8
20260903135005 74 266 8.0 18.0 0.00 0.01 0.00 68 1015.9
20260903134503 75 262 8.0 17.0 0.00 0.01 0.00 68 1015.9
20260903134003 74 267 9.0 17.0 0.00 0.01 0.00 69 1015.8
20260903133503 74 276 7.0 16.0 0.00 0.01 0.00 71 1015.8
20260903133003 74 283 5.0 16.0 0.00 0.01 0.00 74 1015.9
20260903132716 73 277 6.0 14.0 0.00 0.01 0.00 74 1015.9
20260903132003 73 276 7.0 13.0 0.00 0.01 0.00 74 1015.9
20260903131503 73 279 6.0 13.0 0.00 0.01 0.00 74 1015.9
20260903131003 73 275 5.0 13.0 0.00 0.01 0.00 75 1015.7
20260903130503 73 278 6.0 12.0 0.00 0.01 0.00 75 1015.7
20260903130003 73 274 7.0 15.0 0.00 0.01 0.00 75 1015.6
20260903125503 73 262 6.0 13.0 0.00 0.01 0.00 74 1015.8
20260903125003 73 253 6.0 13.0 0.00 0.01 0.00 74 1015.7
20260903124503 73 253 6.0 13.0 0.00 0.01 0.00 74 1015.8
20260903124217 73 254 8.0 18.0 0.00 0.01 0.00 74 1015.7
20260903123503 74 247 9.0 18.0 0.00 0.01 0.00 72 1015.7
20260903123003 74 246 7.0 17.0 0.00 0.01 0.00 73 1015.6
20260903122503 74 251 5.0 12.0 0.00 0.01 0.00 75 1015.6